Regional Weather Roundup
Issued by NWS

Home | Current Version | Previous Version | Graphics & Text | Print | Product List | Glossary On
Versions: 1 2 3 4 5 6 7 8 9 10 11 12 13 14 15 16 17 18 19 20 21 22 23 24 25 26 27 28 29 30 31 32 33 34 35 36 37 38 39 40 41 42 43 44 45 46 47 48 49 50
000
ASUS43 KMPX 261210
RWRMN
WEATHER ROUNDUP FOR MINNESOTA
NATIONAL WEATHER SERVICE TWIN CITIES/CHANHASSEN MN
700 AM CDT WED APR 26 2017


NOTE: "FAIR" INDICATES FEW OR NO CLOUDS BELOW 12,000 FEET WITH NO
SIGNIFICANT WEATHER AND/OR OBSTRUCTIONS TO VISIBILITY. N/A MEANS
CURRENT SKY AND/OR WEATHER CONDITIONS ARE NOT AVAILABLE.

MNZ060>063-068>070-261300-
   Twin Cities Metro

CITY           SKY/WX    TMP DP  RH WIND       PRES   REMARKS
TWIN CITIES    LGT RAIN  36  33  89 N12       29.49R
6HR MIN TEMP:  36; 6HR MAX TEMP:  47; 6HR PCP:  0.25;

ST PAUL        LGT RAIN  37  36  96 N12       29.51R
CRYSTAL        LGT RAIN  35  31  85 N8        29.50R WCI  29
BLAINE         LGT RAIN  36  36 100 N15G22    29.50S
LAKEVILLE      LGT RAIN  37  37 100 N13       29.47R
EDEN PRAIRIE   LGT RAIN  37  34  89 N9G18     29.48R
6HR MIN TEMP:  37; 6HR MAX TEMP:  47; 6HR PCP:  0.14;

SOUTH ST PAUL  LGT RAIN  37  37 100 N10G16    29.49R
LAKE ELMO      LGT RAIN  36  36 100 N10       29.49R
$$
MNZ001>005-007-008-013>017-022>024-027-028-261300-
   Northwest Minnesota

CITY           SKY/WX    TMP DP  RH WIND       PRES   REMARKS
BEMIDJI        LGT SNOW  24  22  91 N15       29.72S WCI  12
HALLOCK        CLOUDY    30  23  74 NE15      29.87S WCI  19
ROSEAU         CLOUDY    28  23  80 NE17G23   29.85S WCI  16
WARROAD        CLOUDY    27  23  86 NE22G29   29.85F WCI  12
THIEF RVR FALL CLOUDY    27  24  89 NE15      29.80S WCI  15
CROOKSTON      CLOUDY    30  27  86 NE14G21   29.81S WCI  20
FOSSTON        CLOUDY    25  25 100 N12G20    29.74S WCI  14
DETROIT LAKES  FLURRIES  30  28  93 NE8       29.68S WCI  23
MOORHEAD       LGT SNOW  28  27  93 N9        29.74R VSB 1   WCI  20
PARK RAPIDS    MIX PCPN  28  22  78 N14G20    29.66R WCI  17
MAHNOMEN       CLOUDY    28  26  89 NE5       29.72R WCI  23
$$
MNZ006-009>011-018-025>026-261300-
   North Central Minnesota

CITY           SKY/WX    TMP DP  RH WIND       PRES   REMARKS
BAUDETTE       CLOUDY    24  19  81 NE15G24   29.82F WCI  11
FLAG ISLAND    CLOUDY    25  19  80 NE21G28   29.88F WCI  10
INTL FALLS     SNOW      24  19  81 NE15      29.80F VSB 1/2 WCI  11
6HR MIN TEMP:  23; 6HR MAX TEMP:  26; 6HR PCP:  0.02;

WASKISH        LGT SNOW  25  21  86 NE14      29.77F WCI  13
BIG FORK       LGT SNOW  25  21  86 N8G16     29.73S WCI  16
LONGVILLE      LGT SNOW  28  27  93 N6        29.66S WCI  22
GRAND RAPIDS   LGT SNOW  27  24  89 NE10G18   29.69R FOG     WCI  17
CRANE LAKE     LGT SNOW  23  21  93 N8        29.80S WCI  14
ORR            MIX PCPN  23  19  86 CALM      29.72S
COOK           LGT SNOW  25  21  86 NE6       29.72S WCI  18
WALKER         LGT SNOW  25  23  89 N9        29.69S WCI  16
$$
MNZ012-019>021-037-261300-
   Northeast Minnesota

CITY           SKY/WX    TMP DP  RH WIND       PRES   REMARKS
DULUTH         FRZ RAIN  32  30  92 NE14G22   29.61F WCI  22
6HR MIN TEMP:  31; 6HR MAX TEMP:  36; 6HR PCP:  0.17;

ELY            LGT SNOW  23  21  93 N5        29.70S WCI  17
HIBBING        MIX PCPN  25  23  92 N10G20    29.67F FOG     WCI  15
EVELETH        MIX PCPN  26  22  87 NE8       29.68S WCI  17
DULUTH HARBOR  MIX PCPN  34  32  93 NE25G39   29.64S WCI  21
TWO HARBORS    LGT SNOW  34  28  80 NE6       29.62F WCI  29
SILVER BAY     RAIN      32  30  93 N7        29.64S WCI  26
GRAND MARAIS     N/A     31  27  85 NE9       29.69F WCI  23
G MARAIS ARPRT LGT SNOW  25  19  80 N6        29.64F WCI  18
$$
MNZ029>031-032-039>041-046>048-054>057-064-261300-
   West Central Minnesota

CITY           SKY/WX    TMP DP  RH WIND       PRES   REMARKS
FERGUS FALLS   CLOUDY    32  32 100 N9        29.67R WCI  24
WHEATON        LGT SNOW  30  30 100 NW15G21   29.71R WCI  19
MORRIS         MIX PCPN  34  32  93 N13       29.64R WCI  25
ALEXANDRIA     CLOUDY    32  30  92 N13       29.62R WCI  22
ELBOW LAKE     CLOUDY    32  31  95 N10       29.65R WCI  24
WADENA         MIX PCPN  28  28 100 N7        29.63R WCI  21
GLENWOOD       MIX PCPN  32  30  93 N9        29.61R WCI  24
APPLETON       CLOUDY    36  32  87 N13       29.65R
BENSON         CLOUDY    36  30  80 N12       29.64R
ORTONVILLE     MIX PCPN  32  30  93 N17       29.67R WCI  21
MADISON        LGT SNOW  36  36 100 N17       29.66R
WILLMAR        MIX PCPN  36  36 100 N14G20    29.60R
$$
MNZ033>034-036-042>043-049>051-058-059-261300-
   Central Minnesota

CITY           SKY/WX    TMP DP  RH WIND       PRES   REMARKS
ST CLOUD       LGT RAIN  35  33  92 N9G20     29.56R WCI  28
6HR MIN TEMP:  35; 6HR MAX TEMP:  42; 6HR PCP:  0.37;

SAUK CENTRE    LGT RAIN  32  31  94 N9        29.60R WCI  24
PAYNESVILLE    DRIZZLE   33  33 100 N10G17    29.59R WCI  25
AITKIN         MIX PCPN  32  27  80 N9        29.60S WCI  24
PINE RIVER     LGT SNOW  28  27  93 N8        29.68S WCI  20
BRAINERD       MIX PCPN  30  28  92 N15       29.61S FOG     WCI  19
STAPLES        MIX PCPN  28  28 100 CALM      29.62S
LONG PRAIRIE   CLOUDY    32  30  93 CALM      29.60R
LITTLE FALLS   LGT SNOW  32  32 100 N6        29.59R WCI  26
LITCHFIELD     DRIZZLE   36  36 100 VRB14     29.56R
BUFFALO        DRIZZLE   35  32  90 N14G21    29.54R WCI  26
MAPLE LAKE     LGT RAIN  37  35  94 N9        29.55R
HUTCHINSON     DRIZZLE   38  37  94 N8        29.55R
$$
MNZ037-044-045-052-053-261300-
   East Central Minnesota

CITY           SKY/WX    TMP DP  RH WIND       PRES   REMARKS
PRINCETON      DRIZZLE   36  32  87 N13G23    29.56R
MORA           MIX PCPN  32  30  93 N6G18     29.57S WCI  26
CAMBRIDGE      MIX PCPN  36  32  87 N10G20    29.52R
RUSH CITY      RAIN      33  31  96 N12G18    29.54S WCI  24
MOOSE LAKE     LGT SNOW  32  30  93 NE13G21   29.57F WCI  22
HINCKLEY       MIX PCPN  32  32 100 NE13G23   29.56S WCI  22
CLOQUET        MIX PCPN  32  28  86 NE7       29.60F WCI  26
MCGREGOR       CLOUDY    32  30  93 N9        29.61F WCI  24
$$
MNZ071>073-080-081-089-090-097-098-261300-
   Southwest Minnesota

CITY           SKY/WX    TMP DP  RH WIND       PRES   REMARKS
MONTEVIDEO     CLOUDY    34  34 100 N14       29.63R FOG     WCI  24
GRANITE FALLS  CLOUDY    37  35  93 NW13      29.64R
CANBY          CLOUDY    34  33  96 NW14      29.66S WCI  25
MARSHALL       MIX PCPN  34  32  92 N20G28    29.62R WCI  23
REDWOOD FALLS  CLOUDY    36  33  89 NW12      29.58R
OLIVIA         CLOUDY    36  32  87 N14G20    29.58R
PIPESTONE      MIX PCPN  34  30  86 N13G18    29.61R WCI  25
WINDOM         DRIZZLE   36  36 100 NW22G30   29.54F
WORTHINGTON    MIX PCPN  34  33  96 NW18      29.58S FOG     WCI  23
JACKSON        CLOUDY    36  34  93 NW21G28   29.54R
TRACY          CLOUDY    35  35  99 N16G25    29.60R FOG     WCI  25
SLAYTON        DRIZZLE   33  32  97 NW22G29   29.59S WCI  21
$$
MNZ065>067-074>077-082>085-091>093-261300-
   South Central Minnesota

CITY           SKY/WX    TMP DP  RH WIND       PRES   REMARKS
NEW ULM        DRIZZLE   37  36  93 NW17      29.54R
ST JAMES       CLOUDY    36  36 100 NW22G29   29.54R
FAIRMONT       LGT RAIN  37  36  96 NW22G32   29.51R FOG
GLENCOE        DRIZZLE   37  37 100 N13G20    29.52R
FARIBAULT      DRIZZLE   39  39 100 N14       29.46R
OWATONNA       RAIN      43  41  93 N17       29.44R
WASECA         LGT RAIN  41  39  93 NW15      29.48R
ALBERT LEA     DRIZZLE   45  45 100 NW12G17   29.43R
$$
MNZ078>079-086>088-094>096-261300-
   Southeast Minnesota

CITY           SKY/WX    TMP DP  RH WIND       PRES   REMARKS
ROCHESTER      FOG       53  53 100 N10       29.39R VSB 1/8
6HR MIN TEMP:  52; 6HR MAX TEMP:  53; 6HR PCP:  0.01;

RED WING       CLOUDY    43  39  87 N7        29.44R
STANTON        LGT RAIN  41  39  90 N14       29.44R
DODGE CENTER   DRZL/FOG  46  45  93 N15       29.40S VSB 1
WINONA         DRIZZLE   55  54  94 CALM      29.38S
AUSTIN         CLOUDY    48  46  93 N8        29.39S FOG
PRESTON        CLOUDY    52  51  96 N3        29.38S FOG
$$
ABBREVIATIONS USED IN REMARKS
   TC - TEMPERATURES IN CELSIUS
  WCI - WIND CHILL INDEX
   HX - HEAT INDEX
  VSB - VISIBILITY
$$




USA.gov is the U.S. government's official web portal to all federal, state and local government web resources and services.